Location: Catstown
(52.4386°N, 7.2633°W)
Time: 11:42:31
(UTC+00:00)

Cosmos 1833 Rocket - Pass Details

Date: 23 January 2021
Orbit: 833 x 839 km, 71.0° (Epoch: 24 February)

Event Time Altitude Azimuth Distance (km) Brightness Sun altitude
Rises 18:38:21 0° 329° (NNW) 3,393 6.1 -14.8°
Reaches altitude 10° 18:40:55 10° 336° (NNW) 2,456 5.3 -15.1°
Maximum altitude 18:46:18 45° 49° (NE) 1,136 3.0 -15.9°
Enters shadow 18:49:48 21° 112° (ESE) 1,813 3.9 -16.5°
